Hourly Weather Lukyanovskiy

Today, 15 May, Saturday

Time Temperature Precipitation Wind Pressure Humidity
00:00 +19°C° 0 mm 1 mps 743 mmHg 48%
01:00 +18°C° 0 mm 1 mps 743 mmHg 49%
02:00 +18°C° 0 mm 1 mps 743 mmHg 49%
03:00 +16°C° 0 mm 1 mps 743 mmHg 50%
04:00 +16°C° 0 mm 1 mps 743 mmHg 50%
05:00 +19°C° 0 mm 1 mps 743 mmHg 50%
06:00 +20°C° 0 mm 1 mps 743 mmHg 49%
07:00 +20°C° 0 mm 0 mps 744 mmHg 49%
08:00 +24°C° 0 mm 1 mps 744 mmHg 44%
09:00 +25°C° 0 mm 1 mps 744 mmHg 40%
10:00 +27°C° 0 mm 1 mps 744 mmHg 36%
11:00 +28°C° 0 mm 1 mps 744 mmHg 34%
12:00 +29°C° 0 mm 1 mps 743 mmHg 32%
13:00 +29°C° 0 mm 1 mps 743 mmHg 30%
14:00 +29°C° 0 mm 1 mps 743 mmHg 30%
15:00 +29°C° 0 mm 1 mps 743 mmHg 30%
16:00 +27°C° 0 mm 0 mps 743 mmHg 30%
17:00 +26°C° 0 mm 0 mps 742 mmHg 35%
18:00 +24°C° 0 mm 0 mps 742 mmHg 41%
19:00 +23°C° 0 mm 0 mps 742 mmHg 46%
20:00 +24°C° 0 mm 1 mps 742 mmHg 47%
21:00 +22°C° 0 mm 1 mps 742 mmHg 47%
22:00 +21°C° 0 mm 1 mps 742 mmHg 48%
23:00 +20°C° 0 mm 1 mps 742 mmHg 52%

Tomorrow, 16 May, Sunday

Time Temperature Precipitation Wind Pressure Humidity
00:00 +19°C° 0 mm 1 mps 742 mmHg 56%
01:00 +18°C° 0 mm 1 mps 741 mmHg 60%
02:00 +18°C° 0 mm 1 mps 741 mmHg 61%
03:00 +18°C° 0 mm 1 mps 742 mmHg 63%
04:00 +16°C° 0 mm 1 mps 742 mmHg 64%
05:00 +19°C° 0 mm 1 mps 742 mmHg 62%
06:00 +21°C° 0 mm 1 mps 742 mmHg 60%
07:00 +22°C° 0 mm 1 mps 742 mmHg 58%
08:00 +24°C° 0 mm 1 mps 742 mmHg 52%
09:00 +24°C° 0 mm 0 mps 742 mmHg 46%
10:00 +26°C° 0 mm 0 mps 742 mmHg 41%
11:00 +26°C° 0 mm 0 mps 742 mmHg 37%
12:00 +27°C° 0 mm 0 mps 742 mmHg 33%
13:00 +28°C° 0 mm 0 mps 742 mmHg 29%
14:00 +30°C° 0 mm 1 mps 742 mmHg 29%
15:00 +30°C° 0 mm 1 mps 742 mmHg 29%
16:00 +30°C° 0 mm 2 mps 741 mmHg 29%
17:00 +29°C° 0 mm 2 mps 741 mmHg 35%
18:00 +27°C° 0 mm 1 mps 741 mmHg 41%
19:00 +25°C° 0 mm 1 mps 741 mmHg 47%
20:00 +24°C° 0 mm 1 mps 741 mmHg 50%
21:00 +22°C° 0 mm 1 mps 741 mmHg 53%
22:00 +21°C° 0 mm 1 mps 741 mmHg 56%
23:00 +20°C° 0 mm 1 mps 741 mmHg 57%

Day after tomorrow, 17 May, Monday

Time Temperature Precipitation Wind Pressure Humidity
00:00 +20°C° 0 mm 1 mps 741 mmHg 58%
01:00 +19°C° 0 mm 1 mps 741 mmHg 59%
02:00 +19°C° 0 mm 1 mps 741 mmHg 58%
03:00 +19°C° 0 mm 1 mps 741 mmHg 57%
04:00 +20°C° 0 mm 1 mps 741 mmHg 56%
05:00 +21°C° 0 mm 1 mps 741 mmHg 55%
06:00 +22°C° 0 mm 1 mps 741 mmHg 54%
07:00 +23°C° 0 mm 1 mps 742 mmHg 53%
08:00 +25°C° 0 mm 1 mps 742 mmHg 49%
09:00 +27°C° 0 mm 2 mps 742 mmHg 44%
10:00 +28°C° 0 mm 2 mps 742 mmHg 40%
11:00 +29°C° 0 mm 2 mps 742 mmHg 36%
12:00 +30°C° 0 mm 2 mps 742 mmHg 32%
13:00 +31°C° 0 mm 3 mps 741 mmHg 29%
14:00 +31°C° 0 mm 3 mps 741 mmHg 28%
15:00 +31°C° 0 mm 2 mps 741 mmHg 28%
16:00 +31°C° 0 mm 2 mps 740 mmHg 27%
17:00 +29°C° 0 mm 2 mps 740 mmHg 33%
18:00 +28°C° 0 mm 1 mps 740 mmHg 38%
19:00 +26°C° 0 mm 1 mps 740 mmHg 44%
20:00 +24°C° 0 mm 1 mps 740 mmHg 47%
21:00 +22°C° 0 mm 1 mps 740 mmHg 50%
22:00 +21°C° 0 mm 1 mps 740 mmHg 53%
23:00 +20°C° 0 mm 1 mps 740 mmHg 55%

18 May, Tuesday

Time Temperature Precipitation Wind Pressure Humidity
00:00 +19°C° 0 mm 1 mps 740 mmHg 56%
01:00 +19°C° 0 mm 1 mps 740 mmHg 58%
02:00 +18°C° 0 mm 1 mps 740 mmHg 58%
03:00 +18°C° 0 mm 1 mps 739 mmHg 59%
04:00 +18°C° 0 mm 1 mps 739 mmHg 59%
05:00 +20°C° 0 mm 1 mps 739 mmHg 57%
06:00 +19°C° 0 mm 0 mps 739 mmHg 55%
07:00 +21°C° 0 mm 0 mps 739 mmHg 53%
08:00 +23°C° 0 mm 0 mps 739 mmHg 49%
09:00 +24°C° 0 mm 0 mps 739 mmHg 45%
10:00 +28°C° 0 mm 1 mps 739 mmHg 41%
11:00 +29°C° 0 mm 1 mps 739 mmHg 39%
12:00 +29°C° 0 mm 1 mps 739 mmHg 36%
13:00 +30°C° 0 mm 1 mps 739 mmHg 33%
14:00 +30°C° 0 mm 2 mps 739 mmHg 33%
15:00 +30°C° 0 mm 2 mps 738 mmHg 34%
16:00 +30°C° 0 mm 2 mps 738 mmHg 34%
17:00 +28°C° 0.1 mm 3 mps 738 mmHg 44%
18:00 +25°C° 0.1 mm 4 mps 738 mmHg 54%
19:00 +22°C° 0.1 mm 5 mps 738 mmHg 64%
20:00 +21°C° 0.1 mm 4 mps 738 mmHg 61%
21:00 +20°C° 0.1 mm 3 mps 737 mmHg 58%
22:00 +20°C° 0.1 mm 2 mps 737 mmHg 54%
23:00 +19°C° 0 mm 2 mps 737 mmHg 57%

19 May, Wednesday

Time Temperature Precipitation Wind Pressure Humidity
00:00 +18°C° 0 mm 2 mps 737 mmHg 60%
01:00 +18°C° 0 mm 2 mps 737 mmHg 63%
02:00 +17°C° 0 mm 2 mps 737 mmHg 65%
03:00 +17°C° 0 mm 2 mps 737 mmHg 66%
04:00 +17°C° 0 mm 2 mps 737 mmHg 68%
05:00 +18°C° 0 mm 3 mps 737 mmHg 67%
06:00 +19°C° 0 mm 4 mps 737 mmHg 66%
07:00 +20°C° 0 mm 5 mps 738 mmHg 66%
08:00 +22°C° 0 mm 5 mps 738 mmHg 62%
09:00 +23°C° 0 mm 6 mps 738 mmHg 57%
10:00 +24°C° 0 mm 6 mps 738 mmHg 53%
11:00 +26°C° 0 mm 6 mps 738 mmHg 51%
12:00 +27°C° 0 mm 6 mps 738 mmHg 48%
13:00 +28°C° 0 mm 6 mps 738 mmHg 46%
14:00 +28°C° 0 mm 5 mps 738 mmHg 46%
15:00 +28°C° 0 mm 5 mps 738 mmHg 46%
16:00 +28°C° 0 mm 5 mps 738 mmHg 47%
17:00 +26°C° 0.1 mm 5 mps 738 mmHg 54%
18:00 +23°C° 0.1 mm 4 mps 738 mmHg 61%
19:00 +21°C° 0.1 mm 4 mps 738 mmHg 69%
20:00 +20°C° 0 mm 4 mps 739 mmHg 68%
21:00 +19°C° 0 mm 3 mps 739 mmHg 67%
22:00 +18°C° 0 mm 3 mps 739 mmHg 66%
23:00 +18°C° 0 mm 4 mps 739 mmHg 64%

20 May, Thursday

Time Temperature Precipitation Wind Pressure Humidity
00:00 +17°C° 0 mm 5 mps 739 mmHg 61%
01:00 +17°C° 0 mm 5 mps 739 mmHg 59%
02:00 +17°C° 0 mm 5 mps 739 mmHg 61%
03:00 +16°C° 0 mm 5 mps 739 mmHg 64%
04:00 +16°C° 0 mm 5 mps 739 mmHg 67%
05:00 +17°C° 0 mm 5 mps 740 mmHg 67%
06:00 +17°C° 0 mm 5 mps 740 mmHg 68%
07:00 +19°C° 0 mm 5 mps 740 mmHg 69%
08:00 +20°C° 0 mm 6 mps 740 mmHg 63%
09:00 +22°C° 0 mm 6 mps 741 mmHg 58%
10:00 +24°C° 0 mm 6 mps 741 mmHg 53%
11:00 +26°C° 0 mm 6 mps 741 mmHg 50%
12:00 +26°C° 0 mm 6 mps 741 mmHg 47%
13:00 +27°C° 0 mm 6 mps 741 mmHg 44%
14:00 +28°C° 0 mm 5 mps 741 mmHg 44%
15:00 +28°C° 0 mm 5 mps 741 mmHg 45%
16:00 +28°C° 0 mm 5 mps 740 mmHg 45%
17:00 +27°C° 0 mm 4 mps 740 mmHg 51%
18:00 +25°C° 0 mm 4 mps 740 mmHg 58%
19:00 +24°C° 0 mm 3 mps 740 mmHg 64%
20:00 +22°C° 0 mm 3 mps 740 mmHg 61%
21:00 +21°C° 0 mm 4 mps 740 mmHg 59%
22:00 +20°C° 0 mm 4 mps 740 mmHg 57%
23:00 +20°C° 0 mm 4 mps 741 mmHg 55%
Show more

We Need Your Consent

Meteoprog and our Service Providers may store and access personal data such as cookies, device identifiers or other similar technologies on your device and process such data to personalise content and ads, as well as provide social media features and to analyse the traffic.

  • Store and/or access information on your device

    Cookies, device identifiers or other information can be stored or accessed on your device for the purposes indicated above.

  • Personalised ads and content, ad and content measurement, audience insights, and products development

    Ads and content can be personalised based on a profile. More data can be added to better personalise ads and content. Ad and content performance can be measured. Insights about the audience who saw the ads and content can be derived. Such data can be used to develop or improve user’s experience, systems and software.

By clicking ‘I Agree’ you will allow the use of indicated cookies, device identifiers, web beacons or other similar technologies. Your settings can be changed in the browser on your device.

For certain purposes, legitimate interests may be relied on, rather than consent. You can read more about this in our Privacy and Cookie Policy.